Location: Montreal
(45.5000°N, 73.5833°W)
Time: 13:03:56
(UTC-04:00)

Envisat - Visible Passes

Search period start: 05 June 2023 00:00
Search period end: 15 June 2023 00:00
Orbit: 763 x 765 km, 98.2° (Epoch: 05 June)

Date Brightness Start Highest point End Pass type
(mag) Time Alt. Az. Time Alt. Az. Time Alt. Az.
05 Jun 5.0 03:55:45 10° NE 03:59:59 26° E 04:04:12 10° SSE visible
06 Jun 5.7 03:20:30 10° ENE 03:22:25 12° E 03:24:18 10° ESE visible
07 Jun 4.2 04:20:01 10° NNE 04:24:52 43° E 04:29:41 10° S visible
08 Jun 5.3 03:43:41 10° NE 03:47:27 20° E 03:51:10 10° SE visible
10 Jun 4.6 04:07:45 10° NNE 04:12:22 33° E 04:16:56 10° SSE visible
11 Jun 5.5 03:31:47 10° NE 03:34:52 16° E 03:37:55 10° SE visible
13 Jun 4.9 03:55:34 10° NE 03:59:50 26° E 04:04:04 10° SSE visible
14 Jun 5.7 03:20:15 10° ENE 03:22:15 12° E 03:24:14 10° ESE visible
